[[{"header":{"parameterUnit":"m.s-1","parameterCategory":1,"la1":30.2991,"la2":30.254,"lo1":-89.0895,"lo2":-89.0444,"dy":0.0017,"dx":0.0017,"nx":28,"ny":28,"refTime":"2024-06-22T09:00:00:Z","depth":0,"parameterNumber":2,"parameterNumberName":"U-component_of_WINDS"},"data":[0,0,0,0,0,0,0,0,0,0,0,0,0,0,0,0,0,0,0,0,0,0,0,0,0,0,0,0,0,0,0,0,0,0,0,0,0,0,0,0,0,0,0,0,0,0,0,0,0,0,0,0,0,0,0,0,0,0,1.423,1.423,0,1.4305,1.4306,1.4307,1.432,1.432,1.4319,1.4318,1.4394,1.4397,1.4399,0,0,0,0,0,0,0,0,0,0,0,0,0,1.4094,1.4096,1.423,1.4231,1.4231,1.4305,1.4306,1.4307,1.432,1.432,1.4319,1.4318,1.4393,1.4396,1.4399,0,0,0,0,0,0,0,0,0,0,0,0,0,1.4159,1.4097,1.4229,1.4247,1.4249,1.4305,1.4306,1.4307,1.4321,1.432,1.4319,1.4318,1.4392,1.4396,1.44,1.4442,0,0,1.4412,1.4413,0,0,0,0,0,0,0,0,1.4156,1.4164,1.4244,1.4246,1.4249,1.4302,1.4286,1.4352,1.4321,1.4293,1.4318,1.4317,1.4364,1.437,1.4386,1.4446,1.4449,1.4412,1.4414,1.4416,1.4417,0,0,0,0,0,0,0,1.4151,1.4161,1.4259,1.4245,1.4248,1.425,1.4258,1.4298,1.4333,1.4296,1.4297,1.4306,1.4365,1.4383,1.4388,1.445,1.4412,1.4415,1.4418,1.4419,1.4545,1.4546,0,0,0,0,0,0,1.4144,1.4157,1.4257,1.4262,1.4199,1.4253,1.4263,1.4286,1.4333,1.4339,1.4307,1.4306,1.4376,1.4384,1.4391,1.4442,1.4416,1.442,1.4422,1.4544,1.4545,1.4546,0,0,0,0,0,0,1.4141,1.4153,1.4254,1.421,1.4223,1.4257,1.4283,1.4288,1.4305,1.4341,1.4347,1.4318,1.4376,1.4386,1.4429,1.4445,1.4421,1.4425,1.4543,1.4545,1.4546,1.4545,0,0,0,0,0,0,1.4137,1.4151,1.4169,1.421,1.4225,1.4292,1.4284,1.429,1.4312,1.4312,1.4353,1.4359,1.4376,1.4423,1.4433,1.445,1.4428,1.4542,1.4544,1.4545,1.4544,1.4546,1.4549,0,0,0,0,0,1.4132,1.4166,1.417,1.4182,1.4248,1.4293,1.4301,1.432,1.4313,1.433,1.4353,1.4358,1.4442,1.4427,1.4438,1.4457,1.4541,1.4543,1.4545,1.4543,1.4546,1.4548,0,0,0,0,0,0,1.4125,1.4172,1.4176,1.4225,1.4255,1.4295,1.4317,1.4324,1.4356,1.4354,1.4377,1.4386,1.4427,1.4447,1.443,1.4499,1.449,1.4495,1.4485,1.4488,1.449,1.4484,1.4431,0,0,0,0,0,1.413,1.4163,1.4201,1.424,1.4255,1.4283,1.4303,1.4316,1.4347,1.436,1.4385,1.4415,1.4448,1.4469,1.4502,1.4547,1.4555,1.4565,1.4567,1.4569,1.4572,1.4595,1.4599,1.4554,1.4554,1.4554,0,0,1.4139,1.4168,1.4188,1.4239,1.4264,1.4296,1.4294,1.4329,1.4353,1.4365,1.4407,1.4427,1.4461,1.4505,1.4526,1.4522,1.4586,1.4572,1.4573,1.4575,1.4598,1.4602,1.4606,1.4556,1.4555,1.4555,0,0,1.4171,1.4198,1.4232,1.4256,1.4293,1.4312,1.432,1.4359,1.4372,1.4415,1.4424,1.4452,1.4509,1.4532,1.4552,1.4591,1.4596,1.4601,1.4613,1.4635,1.4638,1.4642,1.4654,1.4658,1.4604,1.4604,1.4604,0,1.4177,1.4228,1.4248,1.4283,1.4304,1.4317,1.435,1.4373,1.4418,1.4432,1.4428,1.4498,1.4522,1.4571,1.458,1.4596,1.4604,1.4596,1.4636,1.464,1.4643,1.4655,1.466,1.4605,1.4605,1.4604,1.4604,0,1.4232,1.4267,1.429,1.4333,1.4358,1.4391,1.4416,1.4437,1.4447,1.4465,1.4507,1.4537,1.4574,1.4587,1.4597,1.4636,1.4632,1.4632,1.4624,1.4647,1.4659,1.4664,1.4605,1.4605,1.4605,1.4605,0,0,1.4263,1.4317,1.4325,1.4343,1.4384,1.4411,1.4444,1.4481,1.4498,1.4529,1.4556,1.4603,1.4602,1.4624,1.4637,1.4657,1.4683,1.4654,1.4655,1.4657,1.4725,1.4724,1.4729,1.4687,1.4688,1.4689,1.4722,0,1.4299,1.436,1.4379,1.4429,1.446,1.4471,1.45,1.4527,1.4545,1.4573,1.4592,1.4624,1.4622,1.4635,1.4655,1.4676,1.4697,1.4674,1.4711,1.4712,1.4701,1.4736,1.4735,1.4765,1.4727,1.4728,1.4728,0,1.435,1.4381,1.4434,1.4469,1.4483,1.4509,1.4542,1.457,1.46,1.4611,1.4635,1.4645,1.4679,1.4669,1.4715,1.4699,1.4715,1.4727,1.4729,1.4732,1.4721,1.4738,1.4776,1.478,1.4736,1.4735,1.4735,0,1.4365,1.442,1.4458,1.4474,1.4517,1.4534,1.4552,1.4582,1.4602,1.4632,1.4645,1.4678,1.4695,1.472,1.4738,1.473,1.4782,1.4774,1.4791,1.479,1.48,1.4799,1.4839,1.4813,1.4813,1.4813,1.4813,0,1.4402,1.4434,1.4465,1.4489,1.4524,1.4544,1.4578,1.4597,1.4623,1.4649,1.4661,1.4685,1.4709,1.4736,1.475,1.4785,1.4793,1.4802,1.4805,1.48,1.4799,1.481,1.4808,1.4814,1.4814,1.4814,1.4813,0,1.4424,1.4447,1.4489,1.4526,1.4535,1.4559,1.459,1.4612,1.463,1.4663,1.4671,1.4699,1.4731,1.4752,1.4793,1.4803,1.484,1.4843,1.4829,1.4831,1.4845,1.4843,1.4893,1.49,1.487,1.4871,1.4871,0,1.4446,1.4471,1.4509,1.4528,1.4546,1.4576,1.4597,1.4617,1.4638,1.4673,1.4691,1.4724,1.4751,1.4801,1.4824,1.4855,1.4859,1.4874,1.4863,1.4857,1.4857,1.4855,1.4856,1.4875,1.4875,1.4876,1.4876,0,1.4482,1.4491,1.4521,1.4553,1.4577,1.4604,1.4631,1.4645,1.467,1.4692,1.4725,1.4746,1.4787,1.4819,1.4852,1.4869,1.4876,1.4879,1.4884,1.4879,1.4869,1.4873,1.4832,1.4878,1.4877,1.4877,1.4877,1.4877,1.4504,1.4525,1.4555,1.4587,1.4609,1.4633,1.4655,1.4675,1.4703,1.4739,1.4749,1.4782,1.481,1.4855,1.4873,1.4899,1.4897,1.4905,1.4907,1.4908,1.4907,1.4866,1.4905,1.4905,1.4905,1.4905,1.4905,0,1.4538,1.4558,1.4587,1.4623,1.4648,1.4653,1.4682,1.4701,1.4731,1.4757,1.4783,1.482,1.485,1.4875,1.4906,1.4922,1.4926,1.4929,1.4928,1.4931,1.4908,1.49,1.4926,1.4926,1.4926,1.4926,1.4926,1.4926,1.4559,1.4595,1.4608,1.4654,1.4673,1.4707,1.4723,1.4744,1.4765,1.4805,1.4831,1.4847,1.4872,1.4905,1.4932,1.4939,1.4949,1.4951,1.4958,1.4936,1.4933,1.4931,1.4923,1.4954,1.4954,1.4979,1.498,1.498]},{"header":{"parameterUnit":"m.s-1","parameterCategory":1,"la1":30.2991,"la2":30.254,"lo1":-89.0895,"lo2":-89.0444,"dy":0.0017,"dx":0.0017,"nx":28,"ny":28,"refTime":"2024-06-22T09:00:00:Z","depth":0,"parameterNumber":3,"parameterNumberName":"V-component_of_WINDS"},"data":[0,0,0,0,0,0,0,0,0,0,0,0,0,0,0,0,0,0,0,0,0,0,0,0,0,0,0,0,0,0,0,0,0,0,0,0,0,0,0,0,0,0,0,0,0,0,0,0,0,0,0,0,0,0,0,0,0,0,3.3797,3.3797,0,3.3825,3.3826,3.3826,3.3774,3.3772,3.3771,3.3769,3.3796,3.3799,3.3801,0,0,0,0,0,0,0,0,0,0,0,0,0,3.3693,3.3695,3.3797,3.3797,3.3797,3.3825,3.3826,3.3826,3.3774,3.3772,3.377,3.3768,3.3796,3.3798,3.3801,0,0,0,0,0,0,0,0,0,0,0,0,0,3.3732,3.3696,3.3797,3.3775,3.3773,3.3825,3.3826,3.3826,3.3775,3.3772,3.377,3.3767,3.3795,3.3798,3.3802,3.3875,0,0,3.3812,3.3814,0,0,0,0,0,0,0,0,3.373,3.3736,3.3778,3.3777,3.3775,3.3794,3.3799,3.3843,3.3776,3.3774,3.3769,3.3766,3.3797,3.3801,3.3812,3.3876,3.3878,3.3813,3.3815,3.3816,3.3817,0,0,0,0,0,0,0,3.3727,3.3734,3.3808,3.3778,3.3777,3.3763,3.3765,3.3807,3.38,3.3774,3.3771,3.3775,3.3796,3.3808,3.3812,3.3878,3.3813,3.3816,3.3818,3.3819,3.4002,3.4004,0,0,0,0,0,0,3.3727,3.3732,3.3807,3.3809,3.3745,3.3767,3.377,3.379,3.3799,3.3798,3.3777,3.3772,3.3804,3.3808,3.3813,3.3897,3.3816,3.382,3.3822,3.3999,3.4002,3.4005,0,0,0,0,0,0,3.3725,3.3735,3.3806,3.3769,3.3777,3.3771,3.3795,3.3792,3.3804,3.3802,3.38,3.3791,3.3802,3.3808,3.386,3.3898,3.3821,3.3824,3.3996,3.4,3.4004,3.4069,0,0,0,0,0,0,3.3723,3.3734,3.3763,3.3771,3.378,3.3854,3.3797,3.3795,3.3811,3.3805,3.3814,3.3813,3.38,3.3855,3.3863,3.3901,3.3827,3.3992,3.3998,3.4003,3.4063,3.4075,3.4084,0,0,0,0,0,3.3719,3.378,3.3765,3.3774,3.3816,3.3856,3.3861,3.3845,3.3814,3.3842,3.384,3.3813,3.3892,3.386,3.3869,3.3909,3.399,3.3996,3.4002,3.4058,3.4072,3.4084,0,0,0,0,0,0,3.3777,3.3781,3.3764,3.383,3.3843,3.3847,3.3882,3.3861,3.3883,3.3876,3.3855,3.3858,3.3913,3.3917,3.3881,3.3979,3.3936,3.3944,3.3975,3.3988,3.3999,3.3996,3.383,0,0,0,0,0,3.3798,3.3831,3.3832,3.389,3.3898,3.3889,3.3906,3.3893,3.3905,3.391,3.3912,3.3925,3.3952,3.3971,3.3996,3.4064,3.4064,3.4095,3.4106,3.4115,3.4122,3.4155,3.4168,3.4026,3.4026,3.4026,0,0,3.3841,3.3847,3.3869,3.3902,3.3911,3.3944,3.3894,3.3932,3.3956,3.3916,3.3964,3.3966,3.3979,3.4038,3.4065,3.4042,3.4161,3.4122,3.4129,3.4132,3.4163,3.4176,3.4188,3.403,3.4029,3.4028,0,0,3.3935,3.3944,3.3992,3.4001,3.4015,3.4009,3.402,3.4028,3.4027,3.4076,3.4046,3.4073,3.4122,3.4131,3.4143,3.4239,3.4214,3.4247,3.4302,3.4335,3.4347,3.4356,3.4389,3.4401,3.4255,3.4255,3.4255,0,3.3986,3.4036,3.4019,3.4059,3.4073,3.4038,3.4085,3.4095,3.4117,3.4127,3.4102,3.4161,3.4167,3.4227,3.425,3.4261,3.4272,3.4246,3.4347,3.4356,3.4365,3.4395,3.4408,3.4259,3.4258,3.4258,3.4258,0,3.4097,3.4132,3.4169,3.419,3.4208,3.4252,3.424,3.426,3.4245,3.4241,3.429,3.4296,3.4321,3.4334,3.432,3.4392,3.4377,3.435,3.4305,3.4383,3.4411,3.4423,3.4264,3.4263,3.4262,3.4261,0,0,3.4229,3.4239,3.4253,3.4261,3.4273,3.4299,3.434,3.4364,3.4381,3.4397,3.4429,3.447,3.4445,3.4457,3.4444,3.4473,3.4546,3.4442,3.4442,3.4459,3.4623,3.4642,3.4656,3.453,3.4532,3.4534,3.4621,0,3.4321,3.4392,3.4377,3.4446,3.4476,3.4443,3.4478,3.4489,3.4485,3.451,3.4506,3.4535,3.45,3.4507,3.4535,3.4531,3.4578,3.4525,3.4558,3.4559,3.4554,3.4671,3.4692,3.4774,3.4632,3.4634,3.4635,0,3.4438,3.4458,3.453,3.4534,3.4547,3.4579,3.4599,3.4623,3.4634,3.4629,3.4643,3.4623,3.4661,3.4617,3.4669,3.4633,3.4646,3.4646,3.4649,3.465,3.4601,3.4673,3.48,3.4811,3.4653,3.4652,3.465,0,3.4525,3.4569,3.4617,3.4625,3.4633,3.4655,3.466,3.4667,3.4682,3.47,3.4709,3.4731,3.4742,3.4759,3.4745,3.4715,3.4798,3.4754,3.4794,3.4795,3.4812,3.4811,3.4941,3.4824,3.4823,3.4823,3.4823,0,3.4628,3.4673,3.4655,3.4685,3.4733,3.4715,3.4763,3.4763,3.477,3.4798,3.4771,3.4797,3.4778,3.4802,3.4792,3.4835,3.4841,3.4837,3.4833,3.4839,3.4839,3.4845,3.4839,3.4826,3.4826,3.4825,3.4825,0,3.4732,3.4723,3.4773,3.4775,3.4777,3.4812,3.4814,3.484,3.4835,3.487,3.4877,3.4868,3.4896,3.4884,3.4912,3.4905,3.496,3.495,3.4957,3.4953,3.4994,3.4989,3.5131,3.5147,3.5021,3.5023,3.5024,0,3.4798,3.4832,3.4838,3.4854,3.486,3.4888,3.4902,3.4885,3.4902,3.4915,3.4939,3.4964,3.4983,3.5028,3.5023,3.5044,3.5033,3.5081,3.5036,3.504,3.5031,3.5029,3.5031,3.509,3.5091,3.5092,3.5093,0,3.4915,3.4908,3.4931,3.4952,3.497,3.4986,3.4999,3.5014,3.4997,3.5017,3.5044,3.5059,3.5087,3.5112,3.513,3.5133,3.511,3.5108,3.5118,3.5123,3.5124,3.5122,3.4979,3.5104,3.5103,3.5102,3.5102,3.5101,3.5001,3.5028,3.5036,3.5062,3.5069,3.5082,3.5106,3.5103,3.5126,3.5148,3.5136,3.5168,3.5175,3.5197,3.5203,3.5227,3.5208,3.5223,3.5226,3.523,3.5234,3.5122,3.523,3.523,3.523,3.5229,3.5229,0,3.5115,3.5118,3.5142,3.516,3.518,3.5157,3.517,3.5187,3.5215,3.5225,3.5243,3.5274,3.5297,3.5294,3.5315,3.5334,3.5324,3.534,3.5337,3.5338,3.5251,3.524,3.5347,3.5347,3.5347,3.5347,3.5347,3.5347,3.5176,3.522,3.5214,3.5261,3.5264,3.5294,3.5303,3.5314,3.532,3.5356,3.5375,3.5373,3.5376,3.5397,3.5416,3.5415,3.5423,3.5443,3.5437,3.5356,3.5344,3.5333,3.5322,3.5445,3.5445,3.5521,3.5522,3.5522]}]]